UAL3752 KIAD-KEWR

Flight info

Callsign UAL3752
Flight time 0h 38m
Altitude 27000
Route JCOBY4 SWANN PHLBO4
Aircraft B38M/M-SDE1FGHILORVWXY/HB1

Departure

Time 2026-04-23 15:01
Airport Washington Dulles International Airport (KIAD)

Arrival

Time 2026-04-23 15:39
Airport Newark Liberty International Airport (KEWR)
Time Latitude Longitude Altitude Speed Heading
2026-04-23 14:39 38.94593 -77.45059 295 ft 0 kts 176°
2026-04-23 14:51 38.94613 -77.45060 297 ft 4 kts 182°
2026-04-23 14:52 38.94639 -77.45055 297 ft 4 kts 198°
2026-04-23 14:52 38.94660 -77.45040 297 ft 4 kts 241°
2026-04-23 14:52 38.94663 -77.45026 300 ft 1 kts 270°
2026-04-23 14:55 38.94663 -77.45039 295 ft 4 kts 270°
2026-04-23 14:56 38.94664 -77.45105 295 ft 11 kts 270°
2026-04-23 14:56 38.94664 -77.45241 295 ft 19 kts 270°
2026-04-23 14:56 38.94666 -77.45432 295 ft 23 kts 270°
2026-04-23 14:56 38.94665 -77.45595 295 ft 16 kts 261°
2026-04-23 14:57 38.94645 -77.45713 296 ft 12 kts 218°
2026-04-23 14:57 38.94554 -77.45724 297 ft 15 kts 180°
2026-04-23 14:57 38.94435 -77.45726 297 ft 20 kts 180°
2026-04-23 14:57 38.94271 -77.45729 296 ft 27 kts 181°
2026-04-23 14:58 38.94087 -77.45731 296 ft 24 kts 180°
2026-04-23 14:58 38.93925 -77.45733 297 ft 23 kts 179°
2026-04-23 14:58 38.93787 -77.45734 296 ft 15 kts 181°
2026-04-23 14:58 38.93701 -77.45751 296 ft 13 kts 198°
2026-04-23 14:59 38.93605 -77.45797 297 ft 15 kts 200°
2026-04-23 14:59 38.93519 -77.45837 296 ft 13 kts 200°
2026-04-23 14:59 38.93455 -77.45875 295 ft 7 kts 231°
2026-04-23 14:59 38.93455 -77.45905 295 ft 4 kts 283°
2026-04-23 15:00 38.93461 -77.45929 299 ft 1 kts 291°
2026-04-23 15:00 38.93474 -77.45970 295 ft 19 kts 291°
2026-04-23 15:00 38.93611 -77.46438 302 ft 91 kts 291°
2026-04-23 15:00 38.93911 -77.47458 306 ft 150 kts 291°
2026-04-23 15:01 38.94338 -77.48851 577 ft 175 kts 292°
2026-04-23 15:01 38.94768 -77.50324 1354 ft 178 kts 296°
2026-04-23 15:01 38.95456 -77.51647 2173 ft 180 kts 311°
2026-04-23 15:01 38.96310 -77.52918 2851 ft 193 kts 310°
2026-04-23 15:02 38.97193 -77.54291 3634 ft 205 kts 310°
2026-04-23 15:02 38.98128 -77.55750 4422 ft 218 kts 310°
2026-04-23 15:02 38.99217 -77.57203 5078 ft 236 kts 328°
2026-04-23 15:02 39.00845 -77.57756 5699 ft 257 kts
2026-04-23 15:03 39.02515 -77.56964 6651 ft 266 kts 31°
2026-04-23 15:03 39.03834 -77.55219 7486 ft 282 kts 53°
2026-04-23 15:03 39.04868 -77.53043 8453 ft 287 kts 54°
2026-04-23 15:03 39.05944 -77.50846 9392 ft 293 kts 53°
2026-04-23 15:04 39.07042 -77.48616 10281 ft 298 kts 53°
2026-04-23 15:04 39.08191 -77.46305 10784 ft 317 kts 53°
2026-04-23 15:04 39.09422 -77.43843 11170 ft 337 kts 53°
2026-04-23 15:04 39.10721 -77.41232 11609 ft 354 kts 54°
2026-04-23 15:05 39.12067 -77.38510 12230 ft 364 kts 54°
2026-04-23 15:05 39.13422 -77.35743 13049 ft 367 kts 54°
2026-04-23 15:05 39.14723 -77.32874 13785 ft 377 kts 64°
2026-04-23 15:05 39.15355 -77.29577 14556 ft 384 kts 84°
2026-04-23 15:06 39.15123 -77.26136 15307 ft 390 kts 101°
2026-04-23 15:06 39.14535 -77.22702 16043 ft 394 kts 100°
2026-04-23 15:06 39.13960 -77.19239 16726 ft 398 kts 100°
2026-04-23 15:06 39.13393 -77.15722 17427 ft 402 kts 99°
2026-04-23 15:07 39.12832 -77.12182 18147 ft 405 kts 98°
2026-04-23 15:07 39.12261 -77.08613 18769 ft 409 kts 98°
2026-04-23 15:07 39.11682 -77.05013 19366 ft 412 kts 98°
2026-04-23 15:07 39.11098 -77.01382 19960 ft 415 kts 98°
2026-04-23 15:08 39.10759 -76.97750 20501 ft 413 kts 85°
2026-04-23 15:08 39.10852 -76.94040 21052 ft 416 kts 84°
2026-04-23 15:08 39.10932 -76.90297 21613 ft 420 kts 84°
2026-04-23 15:09 39.11117 -76.82718 22739 ft 427 kts 84°
2026-04-23 15:09 39.11212 -76.78869 23266 ft 431 kts 84°
2026-04-23 15:09 39.11306 -76.74993 23785 ft 434 kts 84°
2026-04-23 15:09 39.11401 -76.71089 24228 ft 437 kts 84°
2026-04-23 15:10 39.11463 -76.68495 24499 ft 439 kts 84°
2026-04-23 15:10 39.11588 -76.63210 25082 ft 443 kts 83°
2026-04-23 15:10 39.11679 -76.59279 25519 ft 446 kts 83°
2026-04-23 15:10 39.11770 -76.55280 25954 ft 449 kts 83°
2026-04-23 15:11 39.11967 -76.51274 26356 ft 447 kts 77°
2026-04-23 15:11 39.12410 -76.47289 26772 ft 450 kts 76°
2026-04-23 15:11 39.12858 -76.43283 27151 ft 454 kts 76°
2026-04-23 15:11 39.13314 -76.39240 27580 ft 456 kts 76°
2026-04-23 15:12 39.13770 -76.35186 27974 ft 459 kts 76°
2026-04-23 15:12 39.14228 -76.31105 28370 ft 461 kts 76°
2026-04-23 15:12 39.14787 -76.27030 28728 ft 458 kts 68°
2026-04-23 15:12 39.15999 -76.23288 29014 ft 450 kts 53°
2026-04-23 15:13 39.17902 -76.20120 29081 ft 444 kts 39°
2026-04-23 15:13 39.22342 -76.14577 29082 ft 446 kts 37°
2026-04-23 15:14 39.26887 -76.09156 29071 ft 444 kts 36°
2026-04-23 15:14 39.31452 -76.03780 29069 ft 444 kts 36°
2026-04-23 15:15 39.36019 -75.98405 29066 ft 444 kts 36°
2026-04-23 15:15 39.40586 -75.93021 29084 ft 443 kts 36°
2026-04-23 15:16 39.45136 -75.87645 29057 ft 442 kts 36°
2026-04-23 15:16 39.47376 -75.84995 28930 ft 442 kts 36°
2026-04-23 15:16 39.49674 -75.82274 28661 ft 442 kts 36°
2026-04-23 15:16 39.51920 -75.79613 28402 ft 443 kts 36°
2026-04-23 15:17 39.54195 -75.76916 28165 ft 443 kts 36°
2026-04-23 15:17 39.56469 -75.74216 27908 ft 442 kts 36°
2026-04-23 15:17 39.58730 -75.71527 27572 ft 438 kts 36°
2026-04-23 15:17 39.60967 -75.68868 26730 ft 438 kts 36°
2026-04-23 15:18 39.63211 -75.66195 25991 ft 437 kts 36°
2026-04-23 15:18 39.65436 -75.63545 25410 ft 432 kts 36°
2026-04-23 15:18 39.67640 -75.60913 24794 ft 429 kts 36°
2026-04-23 15:18 39.69829 -75.58280 24103 ft 429 kts 36°
2026-04-23 15:19 39.72012 -75.55653 23536 ft 425 kts 36°
2026-04-23 15:19 39.74174 -75.53050 22867 ft 422 kts 36°
2026-04-23 15:19 39.76319 -75.50465 22262 ft 418 kts 37°
2026-04-23 15:19 39.78441 -75.47906 21683 ft 414 kts 37°
2026-04-23 15:20 39.79837 -75.46222 21303 ft 412 kts 37°
2026-04-23 15:20 39.82604 -75.42879 20543 ft 408 kts 37°
2026-04-23 15:20 39.84680 -75.40371 19986 ft 406 kts 36°
2026-04-23 15:20 39.86747 -75.37868 19418 ft 404 kts 37°
2026-04-23 15:21 39.88808 -75.35371 18861 ft 403 kts 37°
2026-04-23 15:21 39.90857 -75.32887 18298 ft 402 kts 37°
2026-04-23 15:21 39.92912 -75.30395 17426 ft 406 kts 37°
2026-04-23 15:21 39.94960 -75.27909 16677 ft 407 kts 37°
2026-04-23 15:22 39.97000 -75.25427 15974 ft 396 kts 37°
2026-04-23 15:22 39.98995 -75.23000 15275 ft 386 kts 37°
2026-04-23 15:22 40.00946 -75.20624 14578 ft 379 kts 37°
2026-04-23 15:22 40.02853 -75.18300 13903 ft 372 kts 37°
2026-04-23 15:23 40.04733 -75.16007 13160 ft 366 kts 37°
2026-04-23 15:23 40.06581 -75.13751 12427 ft 361 kts 37°
2026-04-23 15:23 40.08403 -75.11525 11716 ft 355 kts 37°
2026-04-23 15:23 40.10191 -75.09340 11188 ft 345 kts 37°
2026-04-23 15:24 40.11884 -75.07268 11131 ft 334 kts 36°
2026-04-23 15:24 40.13580 -75.05192 11038 ft 333 kts 36°
2026-04-23 15:24 40.15269 -75.03124 11008 ft 332 kts 36°
2026-04-23 15:24 40.16923 -75.01093 11013 ft 314 kts 36°
2026-04-23 15:25 40.18458 -74.99204 10933 ft 293 kts 36°
2026-04-23 15:25 40.19935 -74.97395 10490 ft 289 kts 36°
2026-04-23 15:25 40.20903 -74.96208 10156 ft 287 kts 36°
2026-04-23 15:25 40.22845 -74.93822 9472 ft 288 kts 36°
2026-04-23 15:26 40.24315 -74.92013 9023 ft 291 kts 36°
2026-04-23 15:26 40.25770 -74.90141 8578 ft 295 kts 40°
2026-04-23 15:26 40.27166 -74.88195 8161 ft 297 kts 40°
2026-04-23 15:26 40.28572 -74.86241 7762 ft 291 kts 40°
2026-04-23 15:27 40.29928 -74.84329 7412 ft 282 kts 41°
2026-04-23 15:27 40.31242 -74.82481 7066 ft 273 kts 40°
2026-04-23 15:27 40.32521 -74.80682 6719 ft 267 kts 41°
2026-04-23 15:27 40.33780 -74.78912 6395 ft 264 kts 41°
2026-04-23 15:28 40.35025 -74.77161 6032 ft 261 kts 41°
2026-04-23 15:28 40.36260 -74.75424 5681 ft 260 kts 41°
2026-04-23 15:28 40.37490 -74.73690 5325 ft 258 kts 41°
2026-04-23 15:28 40.38709 -74.71975 5081 ft 255 kts 41°
2026-04-23 15:29 40.39897 -74.70300 5043 ft 248 kts 41°
2026-04-23 15:29 40.41072 -74.68645 5016 ft 247 kts 41°
2026-04-23 15:29 40.42156 -74.66881 4988 ft 253 kts 58°
2026-04-23 15:29 40.42759 -74.64710 5021 ft 258 kts 67°
2026-04-23 15:30 40.43311 -74.62474 4968 ft 254 kts 67°
2026-04-23 15:30 40.43844 -74.60289 4814 ft 249 kts 67°
2026-04-23 15:30 40.44359 -74.58145 4633 ft 243 kts 68°
2026-04-23 15:30 40.44860 -74.56054 4476 ft 238 kts 67°
2026-04-23 15:31 40.45350 -74.53994 4320 ft 234 kts 68°
2026-04-23 15:31 40.45825 -74.51986 4200 ft 227 kts 68°
2026-04-23 15:31 40.46292 -74.50019 4042 ft 223 kts 68°
2026-04-23 15:31 40.46751 -74.48082 3888 ft 221 kts 68°
2026-04-23 15:32 40.47200 -74.46183 3738 ft 220 kts 68°
2026-04-23 15:32 40.47654 -74.44270 3584 ft 219 kts 68°
2026-04-23 15:32 40.48102 -74.42367 3431 ft 217 kts 68°
2026-04-23 15:32 40.48546 -74.40476 3280 ft 216 kts 69°
2026-04-23 15:33 40.48992 -74.38597 3118 ft 215 kts 68°
2026-04-23 15:33 40.49436 -74.36726 2983 ft 213 kts 69°
2026-04-23 15:33 40.49726 -74.35493 2956 ft 213 kts 69°
2026-04-23 15:33 40.50161 -74.33642 3044 ft 208 kts 69°
2026-04-23 15:34 40.50573 -74.31891 3033 ft 196 kts 69°
2026-04-23 15:34 40.50975 -74.30189 2981 ft 194 kts 69°
2026-04-23 15:34 40.51443 -74.28548 2957 ft 189 kts 52°
2026-04-23 15:34 40.52376 -74.27403 2997 ft 183 kts 30°
2026-04-23 15:35 40.53842 -74.26292 2979 ft 185 kts 24°
2026-04-23 15:35 40.54614 -74.25772 2827 ft 183 kts 23°
2026-04-23 15:35 40.55749 -74.25037 2620 ft 181 kts 22°
2026-04-23 15:35 40.56869 -74.24329 2401 ft 179 kts 23°
2026-04-23 15:36 40.57961 -74.23633 2181 ft 170 kts 22°
2026-04-23 15:36 40.58993 -74.22980 1969 ft 158 kts 22°
2026-04-23 15:36 40.59951 -74.22373 1803 ft 149 kts 21°
2026-04-23 15:36 40.60880 -74.21785 1595 ft 147 kts 21°
2026-04-23 15:37 40.61803 -74.21201 1397 ft 147 kts 22°
2026-04-23 15:37 40.62728 -74.20616 1212 ft 148 kts 21°
2026-04-23 15:37 40.63659 -74.20026 1013 ft 148 kts 22°
2026-04-23 15:37 40.64574 -74.19446 808 ft 147 kts 23°
2026-04-23 15:38 40.65493 -74.18861 596 ft 146 kts 23°
2026-04-23 15:38 40.66401 -74.18288 407 ft 142 kts 23°
2026-04-23 15:38 40.67272 -74.17731 232 ft 137 kts 24°
2026-04-23 15:38 40.68143 -74.17175 45 ft 140 kts 22°
2026-04-23 15:39 40.68947 -74.16673 23 ft 109 kts 26°
2026-04-23 15:39 40.69419 -74.16368 26 ft 51 kts 26°
2026-04-23 15:39 40.69595 -74.16288 25 ft 15 kts 358°
2026-04-23 15:39 40.69686 -74.16296 22 ft 13 kts 356°
2026-04-23 15:40 40.69780 -74.16307 24 ft 15 kts 353°
2026-04-23 15:40 40.69848 -74.16344 21 ft 10 kts 307°
2026-04-23 15:40 40.69886 -74.16441 20 ft 14 kts 291°
2026-04-23 15:40 40.69906 -74.16565 21 ft 12 kts 275°
2026-04-23 15:41 40.69909 -74.16619 22 ft 6 kts 274°
2026-04-23 15:41 40.69913 -74.16694 22 ft 11 kts 274°
2026-04-23 15:41 40.69881 -74.16764 22 ft 11 kts 191°
2026-04-23 15:41 40.69798 -74.16788 22 ft 13 kts 204°
2026-04-23 15:42 40.69707 -74.16846 22 ft 16 kts 206°
2026-04-23 15:42 40.69611 -74.16908 22 ft 13 kts 206°
2026-04-23 15:42 40.69539 -74.16955 22 ft 13 kts 206°
2026-04-23 15:42 40.69452 -74.17010 22 ft 14 kts 204°
2026-04-23 15:43 40.69378 -74.17056 25 ft 11 kts 207°
2026-04-23 15:43 40.69301 -74.17106 24 ft 14 kts 205°
2026-04-23 15:43 40.69251 -74.17157 22 ft 8 kts 260°
2026-04-23 15:43 40.69265 -74.17215 24 ft 8 kts 298°
2026-04-23 15:44 40.69296 -74.17283 22 ft 4 kts 306°
2026-04-23 15:44 40.69306 -74.17301 22 ft 4 kts 307°
2026-04-23 15:44 40.69329 -74.17338 22 ft 6 kts 315°
2026-04-23 15:44 40.69352 -74.17343 26 ft 3 kts 27°
2026-04-23 15:45 40.69371 -74.17323 22 ft 5 kts 41°
2026-04-23 15:45 40.69384 -74.17308 22 ft 0 kts 42°
2026-04-23 15:45 40.69388 -74.17302 22 ft 0 kts 43°
2026-04-23 15:45 40.69389 -74.17302 22 ft 0 kts 43°